Location: Terra Rouge Observatory
(46.0000°N, 62.7500°W)
Time: 22:50:54
(UTC-03:00)

Amateur Radio Satellites - All Passes

Search period start: 27 May 2015 22:20
Search period end: 28 May 2015 22:20
Location: Terra Rouge Observatory, 46.0000°N, 62.7500°W

Satellite Date Start Highest point End Downlink Frequencies (MHz)
Time Altitude Azimuth
DX 1 27 May 22:24:56 22:29:12 56° 72° (ENE) 22:33:30 434.975-435.025
Oscar 11 27 May 22:25:48 22:29:57 44° 262° (W) 22:34:07 145.826/435.025
AIST 1 27 May 22:31:13 22:34:06 17° 294° (WNW) 22:36:53
Cosmos 2491 27 May 22:35:19 22:41:09 18° 307° (NW) 22:46:38 435.465 / 435.565
CUBEBUG 1 27 May 22:39:09 22:42:28 22° 65° (ENE) 22:45:54 437.445
SEEDS 27 May 22:39:36 22:41:15 12° 273° (W) 22:42:40 437.485
VELOX 1 27 May 22:42:16 22:46:26 43° 70° (ENE) 22:50:41 145.980
50 SAT 27 May 22:48:11 22:52:04 51° 73° (ENE) 22:55:57 437.505
ESTCUBE 1 27 May 22:48:36 22:52:30 31° 68° (ENE) 22:56:28 437.505/2401.250
COMPASS 1 27 May 22:52:19 22:53:15 10° 274° (W) 22:53:56 437.405
GONETS M04 27 May 23:00:12 23:06:30 22° 57° (ENE) 23:13:03
UWE-3 27 May 23:02:45 23:06:50 28° 267° (W) 23:10:50 435.000/436.395/437.385
Cosmos 2504 27 May 23:07:35 23:13:40 29° 275° (W) 23:19:34 435.465 / 435.565
ANTELSAT 27 May 23:08:58 23:12:39 26° 93° (E) 23:16:19 437.575/2403.000
CINEMA 3 27 May 23:09:50 23:12:18 13° 275° (W) 23:14:32 145.822/145.860
FUNcube-1 27 May 23:10:36 23:14:38 29° 266° (W) 23:18:35 145.935
POPSAT HIP 1 27 May 23:10:58 23:12:47 13° 87° (E) 23:14:50 437.405
DUCHIFAT 1 27 May 23:12:12 23:14:02 13° 87° (E) 23:16:04 145.980
AISAT 27 May 23:13:53 23:18:21 88° 252° (WSW) 23:22:52 437.250
SPROUT 27 May 23:15:42 23:18:15 16° 62° (ENE) 23:20:56 437.525
ISS 27 May 23:22:28 23:24:55 20° 138° (SE) 23:27:26 145.825
DELFI C3 27 May 23:23:47 23:26:06 14° 271° (W) 23:28:15 145.870
DANDE 27 May 23:29:32 23:36:38 34° 62° (ENE) 23:42:38 436.750
BUGSAT 1 27 May 23:31:12 23:33:30 14° 88° (E) 23:35:57 437.445
TISAT 1 27 May 23:35:21 23:38:13 18° 64° (ENE) 23:41:13 437.305
HUMSAT D 27 May 23:38:55 23:42:40 28° 266° (W) 23:46:23 437.325/437.525
TIGRISAT 27 May 23:41:00 23:45:20 54° 100° (E) 23:49:34 435.000
UKube-1 27 May 23:52:20 23:55:39 21° 268° (W) 23:58:54 .
QB50P1 27 May 23:53:20 23:57:17 35° 96° (E) 00:01:13 145.935-145.965
ZACube-1 27 May 23:54:25 23:56:07 12° 274° (W) 23:57:33 437.345
CUSAT 1 27 May 23:55:29 00:02:49 56° 72° (ENE) 00:08:32 437.405
POLYITAN 1 27 May 23:55:47 23:59:48 38° 97° (E) 00:03:47 437.675
UNISAT 6 28 May 00:01:47 00:06:14 88° 284° (WNW) 00:10:32 437.425
O/OREOS (USA 219) 28 May 00:02:22 00:04:17 13° 44° (NE) 00:06:21 437.305
DX 1 28 May 00:03:07 00:05:51 16° 270° (W) 00:08:27 434.975-435.025
CUBEBUG 1 28 May 00:14:27 00:18:36 42° 262° (W) 00:22:48 437.445
VELOX 1 28 May 00:19:48 00:23:14 21° 268° (W) 00:26:35 145.980
NANOSAT C BR1 28 May 00:24:09 00:28:27 75° 102° (ESE) 00:32:42 145.865
50 SAT 28 May 00:24:46 00:27:07 15° 271° (W) 00:29:20 437.505
ESTCUBE 1 28 May 00:25:24 00:29:22 30° 265° (W) 00:33:18 437.505/2401.250
QB50P2 28 May 00:32:50 00:37:10 86° 284° (WNW) 00:41:25 145.880/145.840
POPSAT HIP 1 28 May 00:44:56 00:49:13 67° 286° (WNW) 00:53:26 437.405
ANTELSAT 28 May 00:45:32 00:49:30 32° 292° (WNW) 00:53:20 437.575/2403.000
DUCHIFAT 1 28 May 00:46:07 00:50:23 66° 286° (WNW) 00:54:35 145.980
PCSat 28 May 00:48:15 00:53:05 35° 113° (ESE) 00:58:00 145.827
SPROUT 28 May 00:49:37 00:53:53 61° 259° (WSW) 00:58:13 437.525
ITUPSAT 1 28 May 00:51:16 00:54:47 21° 63° (ENE) 00:58:25 437.325
BEESAT 2 28 May 00:54:45 00:55:48 11° 26° (NNE) 00:56:58 435.950
GONETS M04 28 May 00:56:02 01:04:54 87° 80° (E) 01:13:39
ISS 28 May 00:57:50 01:01:05 69° 336° (NNW) 01:04:20 145.825
BEESAT 28 May 00:58:03 01:01:50 25° 65° (ENE) 01:05:43 436.000
BUGSAT 1 28 May 01:05:10 01:09:25 59° 287° (WNW) 01:13:35 437.445
SWISSCUBE 28 May 01:06:17 01:10:25 31° 67° (ENE) 01:14:37 437.505
TISAT 1 28 May 01:09:32 01:13:40 50° 260° (W) 01:17:51 437.305
DANDE 28 May 01:12:39 01:20:26 57° 267° (W) 01:26:35 436.750
TIGRISAT 28 May 01:18:45 01:21:42 17° 298° (WNW) 01:24:29 435.000
Oscar 19 28 May 01:26:12 01:28:48 14° 87° (E) 01:31:39 437.125/150
QB50P1 28 May 01:29:29 01:33:01 24° 294° (WNW) 01:36:26 145.935-145.965
POLYITAN 1 28 May 01:32:05 01:35:31 23° 295° (WNW) 01:38:51 437.675
CUSAT 1 28 May 01:38:56 01:44:55 28° 277° (W) 01:49:44 437.405
O/OREOS (USA 219) 28 May 01:40:02 01:44:32 82° 65° (ENE) 01:49:00 437.305
Cosmos 2499 28 May 01:40:10 01:46:25 33° 68° (ENE) 01:52:48 435.465 / 435.565
UNISAT 6 28 May 01:40:58 01:42:20 11° 302° (WNW) 01:43:30 437.425
BEESAT 3 28 May 01:41:13 01:44:29 22° 39° (NE) 01:47:45 437.485
STARS 28 May 01:52:14 01:52:57 10° 58° (ENE) 01:53:54 437.465
NANOSAT C BR1 28 May 02:01:39 02:03:45 13° 299° (WNW) 02:05:41 145.865
QB50P2 28 May 02:11:21 02:12:24 11° 301° (WNW) 02:13:15 145.880/145.840
VERMONT LUNAR 28 May 02:20:16 02:22:27 17° 160° (SSE) 02:24:39 437.305
KKS-1 28 May 02:23:10 02:27:05 31° 67° (ENE) 02:31:03 437.445
Gurwin Techsat 1B 28 May 02:25:24 02:28:15 15° 87° (E) 02:31:20 435.225
AIST 2 28 May 02:27:25 02:30:29 19° 36° (NE) 02:33:35 435.215
ITUPSAT 1 28 May 02:27:44 02:32:23 51° 260° (W) 02:37:02 437.325
BEESAT 2 28 May 02:30:58 02:34:57 45° 48° (NE) 02:38:54 435.950
PCSat 28 May 02:31:19 02:36:27 42° 312° (NW) 02:41:36 145.827
ISS 28 May 02:34:56 02:37:51 30° 355° (N) 02:40:48 145.825
BEESAT 28 May 02:34:57 02:39:29 43° 262° (W) 02:44:01 436.000
SWISSCUBE 28 May 02:43:56 02:48:15 33° 264° (W) 02:52:32 437.505
SO-50 28 May 02:48:20 02:51:56 22° 113° (ESE) 02:55:42 436.795
GONETS M04 28 May 02:54:25 03:00:43 22° 281° (WNW) 03:06:36
DANDE 28 May 03:00:14 03:01:45 10° 288° (WNW) 03:02:43 436.750
PHONESAT 2.4 28 May 03:01:22 03:03:05 13° 155° (SSE) 03:04:52 2401.200-2431.200
Oscar 19 28 May 03:03:42 03:08:54 79° 286° (WNW) 03:14:02 437.125/150
BEESAT 3 28 May 03:18:45 03:22:45 52° 239° (WSW) 03:26:39 437.485
ITAMSAT 1 28 May 03:19:58 03:24:59 46° 99° (E) 03:30:01 435.822/435.867
O/OREOS (USA 219) 28 May 03:21:58 03:23:21 11° 261° (W) 03:24:28 437.305
STARS 28 May 03:24:16 03:28:42 79° 76° (ENE) 03:33:11 437.465
Cosmos 2499 28 May 03:33:06 03:39:50 48° 269° (W) 03:46:36 435.465 / 435.565
JAS-2 28 May 03:34:47 03:35:50 11° 84° (E) 03:37:14 435.910
VERMONT LUNAR 28 May 03:56:17 03:59:09 30° 177° (S) 04:02:00 437.305
KKS-1 28 May 03:59:43 04:03:42 30° 265° (W) 04:07:40 437.445
MOZHAYETS 4 28 May 03:59:44 04:03:29 26° 66° (ENE) 04:07:19
Gurwin Techsat 1B 28 May 04:03:37 04:08:59 80° 286° (WNW) 04:14:18 435.225
AIST 2 28 May 04:05:19 04:09:34 74° 236° (WSW) 04:13:43 435.215
BEESAT 2 28 May 04:09:37 04:12:47 21° 246° (WSW) 04:15:50 435.950
ISS 28 May 04:11:42 04:14:48 38° 15° (NNE) 04:17:53 145.825
AO-7 28 May 04:12:07 04:18:51 27° 91° (E) 04:25:47 29.400- 29.500
PCSat 28 May 04:19:07 04:21:26 12° 335° (NNW) 04:23:37 145.827
SO-50 28 May 04:27:28 04:32:08 56° 312° (NW) 04:36:58 436.795
PHONESAT 2.4 28 May 04:37:33 04:40:36 29° 171° (S) 04:43:40 2401.200-2431.200
HORYU 2 28 May 04:40:48 04:45:04 45° 99° (E) 04:49:20 437.375
Oscar 19 28 May 04:45:07 04:47:30 13° 304° (WNW) 04:49:39 437.125/150
Cosmos 2491 28 May 04:45:44 04:50:30 16° 50° (NE) 04:55:43 435.465 / 435.565
ITAMSAT 1 28 May 04:59:55 05:04:18 27° 296° (WNW) 05:08:35 435.822/435.867
STARS 28 May 05:04:09 05:05:49 12° 274° (W) 05:07:14 437.465
JAS-2 28 May 05:16:45 05:21:57 87° 99° (E) 05:27:18 435.910
VERMONT LUNAR 28 May 05:33:16 05:35:53 23° 193° (SSW) 05:38:31 437.305
MOZHAYETS 4 28 May 05:36:21 05:40:35 36° 264° (W) 05:44:49
CUBESAT XI-V 28 May 05:41:32 05:45:16 25° 66° (ENE) 05:49:07 437.345
Gurwin Techsat 1B 28 May 05:45:35 05:48:11 13° 304° (NW) 05:50:35 435.225
ISS 28 May 05:48:07 05:51:19 54° 214° (SW) 05:54:31 145.825
STRAND 1 28 May 05:50:16 05:53:27 17° 59° (ENE) 05:56:47 437.568
AO-7 28 May 06:04:08 06:12:30 75° 292° (WNW) 06:20:50 29.400- 29.500
Cubesat XI-IV 28 May 06:04:10 06:05:34 11° 84° (E) 06:07:20 437.490
SO-50 28 May 06:10:52 06:13:47 15° 334° (NNW) 06:16:38 436.795
PHONESAT 2.4 28 May 06:15:12 06:18:18 30° 188° (S) 06:21:23 2401.200-2431.200
HORYU 2 28 May 06:18:05 06:21:28 21° 296° (WNW) 06:24:43 437.375
PRISM 28 May 06:34:48 06:38:34 38° 70° (ENE) 06:42:24 437.425
Cosmos 2491 28 May 06:40:49 06:49:38 66° 76° (ENE) 06:58:23 435.465 / 435.565
M-CUBED/EXP-1 PRIME 28 May 06:50:11 06:54:02 40° 66° (ENE) 06:57:37 437.505
AUBIESAT-1 28 May 06:57:12 07:01:01 41° 66° (ENE) 07:04:37 437.475
AIST 1 28 May 06:57:15 07:00:05 17° 66° (ENE) 07:03:04
JAS-2 28 May 07:03:46 07:06:29 14° 303° (WNW) 07:09:01 435.910
CUBESAT XI-V 28 May 07:18:14 07:22:33 39° 263° (W) 07:26:54 437.345
CUTE-I 28 May 07:20:20 07:25:36 53° 100° (E) 07:30:51 437.470
STRAND 1 28 May 07:27:02 07:32:07 75° 258° (WSW) 07:37:16 437.568
YUBILEINY 28 May 07:34:37 07:43:00 55° 91° (E) 07:51:27 435.215
Cubesat XI-IV 28 May 07:41:15 07:46:39 80° 103° (ESE) 07:52:03 437.490
PCSat 28 May 07:50:52 07:53:37 14° 28° (NNE) 07:56:28 145.827
PHONESAT 2.4 28 May 07:53:46 07:55:51 15° 204° (SSW) 07:57:51 2401.200-2431.200
AO-7 28 May 07:58:13 08:04:06 21° 313° (NW) 08:09:45 29.400- 29.500
PRISM 28 May 08:11:05 08:14:12 20° 268° (W) 08:17:14 437.425
M-CUBED/EXP-1 PRIME 28 May 08:25:56 08:29:01 19° 261° (W) 08:31:49 437.505
AUBIESAT-1 28 May 08:33:01 08:35:57 18° 261° (W) 08:38:39 437.475
AIST 1 28 May 08:33:51 08:38:07 51° 266° (W) 08:42:22
Cosmos 2491 28 May 08:38:31 08:45:58 31° 277° (W) 08:53:08 435.465 / 435.565
COMPASS 1 28 May 08:56:39 08:57:08 10° 86° (E) 08:57:51 437.405
GOMX 1 28 May 08:59:38 09:04:30 34° 93° (E) 09:09:10 467.674
RS-15 28 May 09:00:17 09:10:32 52° 114° (ESE) 09:21:10 29.354- 29.394
CUTE-I 28 May 09:01:03 09:05:23 25° 298° (WNW) 09:09:36 437.470
BRITE-PL 28 May 09:03:14 09:08:49 56° 98° (E) 09:14:10 437.365/2234.400
AAUSAT CUBESAT 2 28 May 09:06:51 09:08:14 12° 87° (E) 09:09:50 437.432
HO-68 28 May 09:08:46 09:15:01 32° 94° (E) 09:21:20 435.675
Cubesat XI-IV 28 May 09:22:41 09:26:11 17° 301° (WNW) 09:29:31 437.490
CINEMA 3 28 May 09:23:25 09:26:30 18° 88° (E) 09:29:38 145.822/145.860
UNISAT 6 28 May 09:28:34 09:31:04 15° 61° (ENE) 09:33:44 437.425
YUBILEINY 28 May 09:32:11 09:40:14 38° 293° (WNW) 09:48:10 435.215
PCSat 28 May 09:33:07 09:38:24 50° 51° (NE) 09:43:41 145.827
SO-50 28 May 09:36:47 09:39:13 14° 23° (NNE) 09:41:46 436.795
DOVE 4 28 May 09:53:55 09:59:04 69° 101° (E) 10:03:55 437.250
Cosmos 2504 28 May 09:54:12 10:01:49 44° 90° (E) 10:09:03 435.465 / 435.565
CANX-2 28 May 09:54:20 09:58:33 74° 101° (E) 10:02:46 2200.000
QB50P2 28 May 09:55:16 09:56:49 12° 60° (ENE) 09:58:33 145.880/145.840
CUTE 1.7 + AOD 2 28 May 09:57:40 10:01:54 72° 102° (ESE) 10:06:05 437.475
ZACube-1 28 May 10:02:41 10:04:37 13° 87° (E) 10:06:45 437.345
CUBEBUG 2 28 May 10:05:47 10:09:16 23° 91° (E) 10:12:44 437.445
POPSAT HIP 1 28 May 10:06:16 10:08:39 15° 62° (ENE) 10:11:10 437.405
DUCHIFAT 1 28 May 10:07:07 10:09:27 15° 62° (ENE) 10:11:56 145.980
ANTELSAT 28 May 10:09:57 10:14:09 34° 69° (ENE) 10:18:21 437.575/2403.000
Oscar 11 28 May 10:10:47 10:14:28 27° 94° (E) 10:18:09 145.826/435.025
SEEDS 28 May 10:18:12 10:22:24 83° 286° (WNW) 10:26:34 437.485
BUGSAT 1 28 May 10:24:02 10:26:24 15° 62° (ENE) 10:28:56 437.445
COMPASS 1 28 May 10:29:16 10:33:26 77° 285° (WNW) 10:37:35 437.405
GOMX 1 28 May 10:37:42 10:42:37 36° 293° (WNW) 10:47:17 467.674
AAUSAT CUBESAT 2 28 May 10:40:16 10:44:24 68° 285° (WNW) 10:48:30 437.432
TIGRISAT 28 May 10:41:37 10:46:16 67° 73° (ENE) 10:50:52 435.000
BRITE-PL 28 May 10:42:20 10:46:57 25° 297° (WNW) 10:51:18 437.365/2234.400
QB50P1 28 May 10:48:20 10:52:15 37° 70° (ENE) 10:56:15 145.935-145.965
UWE-3 28 May 10:49:44 10:54:02 51° 98° (E) 10:58:12 435.000/436.395/437.385
POLYITAN 1 28 May 10:51:01 10:55:02 40° 70° (ENE) 10:59:06 437.675
FUNcube-1 28 May 10:56:07 11:00:17 45° 98° (E) 11:04:22 145.935
HO-68 28 May 10:56:09 11:03:08 56° 294° (WNW) 11:10:02 435.675
DELFI C3 28 May 10:58:20 11:02:20 64° 101° (E) 11:06:19 145.870
CINEMA 3 28 May 10:59:29 11:04:10 55° 288° (WNW) 11:08:36 145.822/145.860
UNISAT 6 28 May 11:02:39 11:07:21 76° 258° (WSW) 11:11:59 437.425
AISAT 28 May 11:03:29 11:06:01 15° 89° (E) 11:08:43 437.250
RS-15 28 May 11:12:12 11:22:57 57° 319° (NW) 11:34:03 29.354- 29.394
SO-50 28 May 11:16:18 11:21:04 44° 46° (NE) 11:25:48 436.795
PCSat 28 May 11:17:00 11:21:37 28° 250° (WSW) 11:26:07 145.827
NANOSAT C BR1 28 May 11:18:45 11:23:01 76° 75° (ENE) 11:27:20 145.865
HUMSAT D 28 May 11:20:02 11:23:56 38° 97° (E) 11:27:49 437.325/437.525
CUSAT 1 28 May 11:25:16 11:27:52 12° 75° (ENE) 11:31:05 437.405
QB50P2 28 May 11:27:49 11:32:07 84° 257° (WSW) 11:36:28 145.880/145.840
CANX-2 28 May 11:32:00 11:33:59 13° 299° (WNW) 11:35:47 2200.000
DOVE 4 28 May 11:32:46 11:36:15 18° 300° (WNW) 11:39:30 437.250
CUTE 1.7 + AOD 2 28 May 11:35:17 11:37:19 13° 299° (WNW) 11:39:10 437.475
UKube-1 28 May 11:36:00 11:40:17 53° 100° (E) 11:44:33 .
ZACube-1 28 May 11:37:14 11:41:33 64° 286° (WNW) 11:45:45 437.345
POPSAT HIP 1 28 May 11:39:47 11:44:04 65° 259° (W) 11:48:22 437.405
DUCHIFAT 1 28 May 11:40:32 11:44:48 65° 259° (WSW) 11:49:05 145.980
CUBEBUG 2 28 May 11:41:58 11:46:09 38° 290° (WNW) 11:50:09 437.445
DX 1 28 May 11:46:46 11:51:12 75° 103° (ESE) 11:55:35 434.975-435.025
Oscar 11 28 May 11:46:50 11:50:40 31° 291° (WNW) 11:54:25 145.826/435.025
ANTELSAT 28 May 11:46:53 11:50:58 29° 266° (W) 11:54:58 437.575/2403.000
Cosmos 2504 28 May 11:47:34 11:55:18 42° 289° (WNW) 12:02:30 435.465 / 435.565
50 SAT 28 May 11:56:42 12:00:31 55° 100° (E) 12:04:18 437.505
BUGSAT 1 28 May 11:57:19 12:01:26 61° 259° (W) 12:05:38 437.445
CUBEBUG 1 28 May 12:00:48 12:04:42 29° 95° (E) 12:08:37 437.445
VELOX 1 28 May 12:06:23 12:10:52 62° 101° (ESE) 12:15:18 145.980
GONETS M04 28 May 12:06:32 12:12:26 21° 78° (ENE) 12:18:42
ESTCUBE 1 28 May 12:14:52 12:19:15 46° 99° (E) 12:23:38 437.505/2401.250
TIGRISAT 28 May 12:20:45 12:23:30 15° 272° (W) 12:26:04 435.000
QB50P1 28 May 12:24:48 12:28:16 23° 267° (W) 12:31:39 145.935-145.965
UWE-3 28 May 12:27:08 12:30:12 18° 297° (WNW) 12:33:07 435.000/436.395/437.385
POLYITAN 1 28 May 12:27:45 12:31:08 21° 268° (W) 12:34:25 437.675
FUNcube-1 28 May 12:33:10 12:36:20 20° 296° (WNW) 12:39:20 145.935
SPROUT 28 May 12:34:34 12:37:42 20° 91° (E) 12:40:56 437.525
DELFI C3 28 May 12:34:59 12:37:00 13° 298° (WNW) 12:38:52 145.870
AISAT 28 May 12:38:37 12:43:05 61° 287° (WNW) 12:47:30 437.250
DANDE 28 May 12:41:09 12:47:41 35° 86° (E) 12:55:09 436.750
Oscar 19 28 May 12:44:46 12:49:07 28° 64° (ENE) 12:53:32 437.125/150
HO-68 28 May 12:46:09 12:49:29 14° 314° (NW) 12:52:30 435.675
TISAT 1 28 May 12:52:06 12:55:22 21° 92° (E) 12:58:42 437.305
HUMSAT D 28 May 12:56:17 12:59:30 21° 294° (WNW) 13:02:35 437.325/437.525
SO-50 28 May 12:57:07 13:01:31 31° 244° (WSW) 13:05:46 436.795
NANOSAT C BR1 28 May 12:58:02 12:59:29 11° 274° (W) 13:00:42 145.865
CUSAT 1 28 May 13:01:35 13:08:57 57° 93° (E) 13:17:06 437.405
ITAMSAT 1 28 May 13:04:08 13:06:45 14° 57° (ENE) 13:09:34 435.822/435.867
UKube-1 28 May 13:13:03 13:16:03 18° 297° (WNW) 13:18:56 .
DX 1 28 May 13:24:36 13:26:55 14° 300° (WNW) 13:29:04 434.975-435.025
AO-7 28 May 13:26:58 13:30:25 14° 38° (NE) 13:34:14 29.400- 29.500
RS-15 28 May 13:28:53 13:38:26 31° 351° (N) 13:48:16 29.354- 29.394
50 SAT 28 May 13:32:42 13:34:50 14° 297° (WNW) 13:36:50 437.505
CUBEBUG 1 28 May 13:37:06 13:41:03 31° 292° (WNW) 13:44:56 437.445
VELOX 1 28 May 13:44:05 13:46:59 17° 298° (WNW) 13:49:45 145.980
Gurwin Techsat 1B 28 May 13:48:18 13:52:53 31° 65° (ENE) 13:57:32 435.225
ESTCUBE 1 28 May 13:52:23 13:55:50 21° 296° (WNW) 13:59:12 437.505/2401.250
GONETS M04 28 May 13:59:21 14:08:13 89° 278° (W) 14:17:09
SPROUT 28 May 14:09:54 14:14:03 43° 289° (WNW) 14:18:08 437.525
Cosmos 2499 28 May 14:20:36 14:26:43 26° 84° (E) 14:32:45 435.465 / 435.565
DANDE 28 May 14:23:02 14:30:30 61° 287° (WNW) 14:39:00 436.750
Oscar 19 28 May 14:23:21 14:28:18 43° 262° (W) 14:33:16 437.125/150
ITUPSAT 1 28 May 14:25:51 14:30:10 34° 96° (E) 14:34:32 437.325
TISAT 1 28 May 14:27:18 14:31:19 39° 290° (WNW) 14:35:16 437.305
BEESAT 28 May 14:32:27 14:36:56 39° 98° (E) 14:41:25 436.000
ITAMSAT 1 28 May 14:40:23 14:45:34 88° 78° (ENE) 14:50:49 435.822/435.867
SWISSCUBE 28 May 14:41:05 14:45:45 52° 99° (E) 14:50:26 437.505
CUSAT 1 28 May 14:44:51 14:52:04 38° 295° (WNW) 14:59:42 437.405
AO-7 28 May 15:13:34 15:21:20 47° 61° (ENE) 15:29:13 29.400- 29.500
STARS 28 May 15:13:36 15:15:15 12° 87° (E) 15:17:09 437.465
Gurwin Techsat 1B 28 May 15:27:46 15:32:46 40° 263° (W) 15:37:46 435.225
JAS-2 28 May 15:30:48 15:37:01 51° 70° (ENE) 15:42:36 435.910
HORYU 2 28 May 15:41:14 15:45:37 58° 72° (ENE) 15:50:02 437.375
RS-15 28 May 15:44:39 15:54:56 37° 24° (NNE) 16:05:44 29.354- 29.394
KKS-1 28 May 15:47:45 15:52:02 42° 98° (E) 15:56:17 437.445
O/OREOS (USA 219) 28 May 15:54:34 15:58:59 59° 111° (ESE) 16:03:26 437.305
GONETS M04 28 May 15:59:50 16:06:35 23° 303° (WNW) 16:13:01
ITUPSAT 1 28 May 16:03:48 16:08:02 31° 293° (WNW) 16:12:11 437.325
BEESAT 28 May 16:10:37 16:14:37 27° 295° (WNW) 16:18:33 436.000
DANDE 28 May 16:10:50 16:15:53 17° 311° (NW) 16:20:46 436.750
Cosmos 2499 28 May 16:11:24 16:19:24 67° 282° (WNW) 16:26:50 435.465 / 435.565
SWISSCUBE 28 May 16:19:41 16:23:19 21° 297° (WNW) 16:26:50 437.505
ITAMSAT 1 28 May 16:23:32 16:25:55 13° 274° (W) 16:28:02 435.822/435.867
STARS 28 May 16:47:53 16:52:20 74° 286° (WNW) 16:56:43 437.465
AO-7 28 May 17:06:19 17:14:13 46° 261° (W) 17:22:08 29.400- 29.500
CUTE-I 28 May 17:07:13 17:10:36 18° 59° (ENE) 17:14:09 437.470
BEESAT 3 28 May 17:15:16 17:17:32 15° 112° (ESE) 17:19:58 437.485
JAS-2 28 May 17:16:49 17:22:22 28° 266° (W) 17:27:19 435.910
HORYU 2 28 May 17:19:50 17:22:41 16° 270° (W) 17:25:22 437.375
KKS-1 28 May 17:24:54 17:28:26 23° 296° (WNW) 17:31:52 437.445
Cubesat XI-IV 28 May 17:27:16 17:31:31 26° 63° (ENE) 17:35:54 437.490
MOZHAYETS 4 28 May 17:28:32 17:32:54 43° 98° (E) 17:37:15
O/OREOS (USA 219) 28 May 17:35:34 17:38:51 19° 311° (NW) 17:42:02 437.305
YUBILEINY 28 May 17:41:41 17:49:05 31° 64° (ENE) 17:56:40 435.215
Cosmos 2491 28 May 17:54:01 17:57:52 14° 74° (ENE) 18:02:19 435.465 / 435.565
RS-15 28 May 17:57:39 18:09:17 83° 53° (NE) 18:21:26 29.354- 29.394
BEESAT 2 28 May 18:04:37 18:08:25 37° 119° (ESE) 18:12:17 435.950
AIST 2 28 May 18:07:40 18:09:33 13° 110° (ESE) 18:11:37 435.215
Cosmos 2499 28 May 18:10:11 18:14:13 14° 306° (NW) 18:17:44 435.465 / 435.565
BRITE-PL 28 May 18:40:59 18:43:25 14° 56° (NE) 18:46:10 437.365/2234.400
CUTE-I 28 May 18:44:49 18:50:07 77° 256° (WSW) 18:55:30 437.470
BEESAT 3 28 May 18:51:01 18:55:05 64° 309° (NW) 18:59:12 437.485
Cubesat XI-IV 28 May 19:06:13 19:11:22 50° 261° (W) 19:16:34 437.490
MOZHAYETS 4 28 May 19:06:17 19:09:54 23° 295° (WNW) 19:13:26
CUBESAT XI-V 28 May 19:12:00 19:16:30 43° 98° (E) 19:21:00 437.345
DOVE 4 28 May 19:26:26 19:29:11 15° 58° (ENE) 19:32:11 437.250
STRAND 1 28 May 19:35:18 19:39:50 31° 95° (E) 19:44:24 437.568
YUBILEINY 28 May 19:38:06 19:46:43 67° 266° (W) 19:55:16 435.215
HO-68 28 May 19:40:14 19:46:24 33° 59° (ENE) 19:52:42 435.675
SEEDS 28 May 19:40:15 19:41:21 11° 60° (ENE) 19:42:40 437.485
BEESAT 2 28 May 19:42:55 19:46:35 29° 318° (NW) 19:50:14 435.950
AIST 2 28 May 19:43:19 19:47:37 78° 309° (NW) 19:51:55 435.215
Cosmos 2504 28 May 19:44:27 19:48:39 16° 56° (NE) 19:53:08 435.465 / 435.565
Cosmos 2491 28 May 19:44:32 19:53:13 69° 94° (E) 20:02:00 435.465 / 435.565
PRISM 28 May 19:49:37 19:53:36 43° 99° (E) 19:57:36 437.425
COMPASS 1 28 May 19:50:25 19:51:40 11° 61° (ENE) 19:53:06 437.405
AAUSAT CUBESAT 2 28 May 20:00:30 20:02:12 12° 62° (ENE) 20:04:03 437.432
M-CUBED/EXP-1 PRIME 28 May 20:04:20 20:06:24 16° 98° (E) 20:08:34 437.505
GOMX 1 28 May 20:09:23 20:14:22 46° 70° (ENE) 20:19:36 467.674
AUBIESAT-1 28 May 20:10:41 20:12:49 16° 98° (E) 20:15:02 437.475
RS-15 28 May 20:10:58 20:20:47 32° 254° (WSW) 20:30:31 29.354- 29.394
BRITE-PL 28 May 20:15:49 20:21:00 76° 75° (ENE) 20:26:37 437.365/2234.400
CINEMA 3 28 May 20:26:53 20:30:51 25° 65° (ENE) 20:34:56 145.822/145.860
CUTE-I 28 May 20:30:14 20:31:16 10° 277° (W) 20:31:55 437.470
BEESAT 3 28 May 20:31:49 20:33:54 13° 330° (NNW) 20:35:54 437.485
CANX-2 28 May 20:49:23 20:53:38 72° 76° (ENE) 20:57:53 2200.000
CUBESAT XI-V 28 May 20:49:56 20:53:43 24° 295° (WNW) 20:57:25 437.345
CUTE 1.7 + AOD 2 28 May 20:52:39 20:56:54 70° 75° (ENE) 21:01:08 437.475
ZACube-1 28 May 21:00:45 21:03:38 17° 63° (ENE) 21:06:38 437.345
DOVE 4 28 May 21:01:00 21:06:11 87° 80° (E) 21:11:35 437.250
AIST 1 28 May 21:05:28 21:09:44 83° 98° (E) 21:14:04
CUBEBUG 2 28 May 21:05:56 21:09:59 29° 67° (ENE) 21:14:05 437.445
Oscar 11 28 May 21:07:58 21:11:42 30° 68° (ENE) 21:15:30 145.826/435.025
DX 1 28 May 21:12:01 21:13:19 11° 58° (ENE) 21:14:48 434.975-435.025
SEEDS 28 May 21:12:21 21:16:34 87° 257° (WSW) 21:20:48 437.485
STRAND 1 28 May 21:14:22 21:19:07 38° 293° (WNW) 21:23:49 437.568
COMPASS 1 28 May 21:22:35 21:26:47 83° 257° (WSW) 21:30:59 437.405
AIST 2 28 May 21:24:14 21:26:55 16° 328° (NNW) 21:29:31 435.215
PRISM 28 May 21:25:45 21:28:47 19° 296° (WNW) 21:31:44 437.425
HO-68 28 May 21:26:47 21:33:51 58° 259° (WSW) 21:40:56 435.675
AAUSAT CUBESAT 2 28 May 21:33:08 21:37:18 74° 257° (WSW) 21:41:28 437.432
Cosmos 2504 28 May 21:36:13 21:43:29 82° 80° (E) 21:50:43 435.465 / 435.565
YUBILEINY 28 May 21:38:00 21:41:59 13° 287° (WNW) 21:45:21 435.215
M-CUBED/EXP-1 PRIME 28 May 21:38:27 21:41:27 31° 295° (WNW) 21:44:25 437.505
Cosmos 2491 28 May 21:43:19 21:50:57 30° 297° (WNW) 21:58:26 435.465 / 435.565
AUBIESAT-1 28 May 21:44:48 21:47:46 30° 296° (WNW) 21:50:43 437.475
DELFI C3 28 May 21:47:54 21:51:49 54° 73° (ENE) 21:55:46 145.870
GOMX 1 28 May 21:48:15 21:52:42 27° 269° (W) 21:57:16 467.674
UWE-3 28 May 21:48:39 21:53:15 58° 73° (ENE) 21:57:50 435.000/436.395/437.385
FUNcube-1 28 May 21:53:44 21:58:10 51° 72° (ENE) 22:02:36 145.935
BRITE-PL 28 May 21:56:56 22:00:18 16° 275° (W) 22:03:34 437.365/2234.400
CUSAT 1 28 May 21:59:16 22:00:55 11° 43° (NE) 22:02:52 437.405
CINEMA 3 28 May 22:02:55 22:07:47 48° 262° (W) 22:12:40 145.822/145.860
AISAT 28 May 22:03:38 22:06:47 20° 63° (ENE) 22:10:05 437.250
GONETS M04 28 May 22:12:39 22:15:42 12° 46° (NE) 22:19:18
